Regional Weather Roundup
Issued by NWS Cleveland, OH

Home | Current Version | Previous Version | Graphics & Text | Print | Product List | Glossary On
Versions: 1 2 3 4 5 6 7 8 9 10 11 12 13 14 15 16 17 18 19 20 21 22 23 24 25 26 27 28 29 30 31 32 33 34 35 36 37 38 39 40 41 42 43 44 45 46 47 48 49 50
000
ASUS41 KCLE 190410
RWRCLE
OHIO REGIONAL WEATHER ROUNDUP
NATIONAL WEATHER SERVICE CLEVELAND, OH
1200 AM EDT FRI SEP 19 2014

NOTE: "FAIR" INDICATES FEW OR NO CLOUDS BELOW 12,000 FEET WITH NO
SIGNIFICANT WEATHER AND/OR OBSTRUCTIONS TO VISIBILITY.

OHZ001>008-015>018-024>027-034-035-043-044-190500-
   NORTHWEST OHIO

CITY           SKY/WX    TMP DP  RH WIND       PRES   REMARKS
DEFIANCE       CLEAR     56  51  84 NE5       30.20R
FINDLAY        CLEAR     56  52  86 NE7       30.18R
TOLEDO EXPRESS MOCLDY    55  51  86 NE7       30.20R
TOLEDO EXEC    MOCLDY    57  50  77 NE8       30.22R
LIMA           CLEAR     52  49  89 E5        30.19R
$$

OHZ009>014-019>023-028>033-038-089-190500-
   NORTHEAST OHIO

CITY           SKY/WX    TMP DP  RH WIND       PRES   REMARKS
CLE-HOPKINS    PTCLDY    57  51  80 N7        30.21R
CLE-LAKEFRONT  MOCLDY    59  51  75 N9        30.19R
CUY CO. ARPT   NOT AVBL
LORAIN-ELYRIA  CLOUDY    57  52  83 NE6       30.21R
ASHTABULA      MOCLDY    50  49  96 SE3       30.20R
AKRON-CANTON   CLEAR     50  46  86 NE5       30.19R
WOOSTER        CLEAR     48  45  89 N3        30.20R
MANSFIELD      CLEAR     51  50  96 E3        30.19S
YOUNGSTOWN     CLEAR     49  48  97 CALM      30.19R
$$

OHZ042-051>053-060>062-070>072-077>081-190500-
  SOUTHWEST OHIO

CITY           SKY/WX    TMP DP  RH WIND       PRES   REMARKS
CINC-COVINGTON CLEAR     59  46  62 E8        30.13S
CINC-LUNKEN    CLEAR     52  50  93 NE3       30.14S
HAMILTON       CLEAR     50  49  96 CALM      30.15R
DAYTON         CLEAR     57  50  77 E10       30.17R
WRIGHT-PAT AFB CLEAR     53  48  83 N6        30.16R
DAYTON GENERAL CLEAR     53  48  83 NE6       30.15R
WILMINGTON     CLEAR     51  45  79 E5        30.15R
$$

OHZ036-037-039>041-045>050-054>059-063>069-073>076-082>088-190500-
  CENTRAL AND SOUTHEAST OHIO

CITY           SKY/WX    TMP DP  RH WIND       PRES   REMARKS
COLUMBUS       CLEAR     59  49  69 NE9       30.16R
OSU AIRPORT    FAIR      54  49  83 E6        30.17R
BOLTON FIELD   CLEAR     55  50  83 NE3       30.17S
RICKENBACK AFB CLEAR     53  48  84 NE7       30.16R
NEWARK         CLEAR     53  48  83 N3        30.17R
MARION         CLEAR     49  46  90 CALM      30.18S
LANCASTER      CLEAR     48  45  89 CALM      30.17R
ZANESVILLE     CLEAR     54  49  83 CALM      30.17R
NEW PHILLY     PTCLDY    52  50  93 N3        30.19R
$$


USA.gov is the U.S. government's official web portal to all federal, state and local government web resources and services.